[[[{"header":{"parameterUnit":"kt","parameterCategory":2,"dx":1,"dy":1,"la1":30.253999710083008,"la2":30.299108505249023,"lo1":-89.0895004272461,"lo2":-89.04439544677734,"nx":28,"ny":28,"refTime":"2022-09-20T09:00:00:Z","depth":"0","parameterNumber":2,"parameterNumberName":"U-component_of_CURRENTS"},"data":[-0.0439,-0.0327,-0.0347,-0.0205,-0.0205,-0.0105,-0.0046,0.0101,0.033,0.0867,0.1327,0.1615,0.2205,0.2956,0.2994,0.2685,0.2299,0.2287,0.1927,0.1885,0.1784,0.1689,0.1779,0.2645,0.2646,0.2162,0.2162,0.2162,-0.0581,-0.058,-0.0543,-0.052,-0.0466,-0.0534,-0.0451,-0.035,-0.0111,0.02,0.0479,0.1222,0.1623,0.1655,0.1829,0.1674,0.1187,0.1528,0.138,0.1208,0.0917,0.1002,0.1716,0.1716,0.1716,0.1715,0.1715,0.1715,-0.0855,-0.0813,-0.0832,-0.0796,-0.0791,-0.074,-0.0662,-0.0608,-0.0442,-0.0189,-0.0101,0.028,0.0722,0.0734,0.0485,0.0486,0.0132,0.0472,0.05,0.0278,0.0265,-0.0109,0.0346,0.0341,0.0337,0.0334,0.0331,0,-0.1064,-0.1099,-0.1097,-0.1082,-0.1062,-0.1035,-0.1009,-0.0928,-0.0943,-0.0795,-0.0543,-0.0368,-0.022,-0.0005,-0.0082,-0.0237,-0.0544,-0.0543,-0.042,0.003,-0.0071,-0.0164,-0.0766,-0.0354,-0.0363,-0.037,-0.0374,-0.0378,-0.1293,-0.128,-0.1342,-0.1322,-0.1346,-0.1322,-0.1294,-0.1351,-0.1293,-0.1155,-0.1057,-0.0921,-0.0755,-0.0723,-0.0854,-0.0922,-0.1063,-0.0743,-0.0909,-0.0719,-0.0668,-0.0858,-0.0949,-0.0472,-0.046,-0.045,-0.0442,0,-0.1396,-0.1496,-0.1479,-0.1554,-0.1561,-0.1518,-0.1521,-0.1469,-0.1486,-0.1361,-0.1341,-0.1338,-0.1261,-0.1398,-0.1459,-0.1576,-0.1455,-0.1555,-0.1215,-0.1158,-0.0883,-0.0847,-0.0587,-0.0645,-0.1328,-0.1321,-0.1316,0,-0.1586,-0.1568,-0.1691,-0.1687,-0.163,-0.1739,-0.1662,-0.1697,-0.1692,-0.1607,-0.1737,-0.1629,-0.1827,-0.1786,-0.1935,-0.1853,-0.1909,-0.1935,-0.1914,-0.1663,-0.1626,-0.1441,-0.1393,-0.2141,-0.2143,-0.2144,-0.2146,0,-0.169,-0.1766,-0.1762,-0.1792,-0.1877,-0.1855,-0.189,-0.1927,-0.1904,-0.1923,-0.187,-0.1938,-0.1909,-0.1993,-0.2078,-0.2184,-0.2043,-0.2193,-0.202,-0.2006,-0.1688,-0.1649,-0.1257,-0.2148,-0.2148,-0.2149,-0.215,0,-0.1841,-0.1884,-0.1896,-0.1945,-0.1954,-0.1975,-0.197,-0.2011,-0.2045,-0.2079,-0.2109,-0.2168,-0.2186,-0.2314,-0.2316,-0.2367,-0.239,-0.2428,-0.2421,-0.2226,-0.2272,-0.1787,-0.1557,-0.1386,-0.2357,-0.2359,-0.2361,0,-0.1912,-0.1954,-0.2033,-0.2047,-0.2073,-0.2166,-0.2181,-0.224,-0.2299,-0.2295,-0.2384,-0.2392,-0.2532,-0.2524,-0.255,-0.2577,-0.2544,-0.264,-0.2514,-0.2508,-0.2323,-0.2186,-0.1854,-0.162,-0.2391,-0.2388,-0.2386,0,-0.1972,-0.2103,-0.21,-0.2125,-0.2248,-0.2275,-0.2313,-0.2369,-0.2357,-0.2473,-0.2445,-0.2556,-0.2585,-0.2606,-0.2664,-0.2666,-0.2591,-0.2702,-0.2701,-0.2601,-0.2453,-0.2253,-0.2213,-0.2626,-0.2623,-0.2621,-0.2409,0,-0.2118,-0.2152,-0.2152,-0.2242,-0.2288,-0.2318,-0.2436,-0.2461,-0.2536,-0.2612,-0.2623,-0.2712,-0.2729,-0.2759,-0.2825,-0.2767,-0.2746,-0.2793,-0.2791,-0.2756,-0.2669,-0.265,-0.288,-0.2881,-0.2881,-0.2882,0,0,-0.2153,-0.2199,-0.2286,-0.232,-0.2362,-0.2488,-0.2508,-0.2581,-0.2696,-0.2701,-0.276,-0.2818,-0.2857,-0.2848,-0.287,-0.2888,-0.2843,-0.2847,-0.279,-0.278,-0.277,-0.2685,-0.2667,-0.2883,-0.2883,-0.2883,-0.2883,0,-0.2215,-0.227,-0.2277,-0.2345,-0.2448,-0.2528,-0.2537,-0.2663,-0.2707,-0.2767,-0.2825,-0.2848,-0.2882,-0.2904,-0.2921,-0.2902,-0.2849,-0.289,-0.2835,-0.2797,-0.2786,-0.2776,-0.2691,-0.2674,-0.2885,-0.2885,-0.2885,0,-0.2284,-0.2357,-0.2373,-0.2479,-0.255,-0.2602,-0.2691,-0.2744,-0.2786,-0.2859,-0.2891,-0.2926,-0.2961,-0.2961,-0.2952,-0.2956,-0.2858,-0.2914,-0.2911,-0.2879,-0.2839,-0.2827,-0.2817,-0.2944,-0.2944,-0.2944,0,0,-0.2327,-0.2352,-0.2488,-0.2505,-0.254,-0.2666,-0.2709,-0.2778,-0.2854,-0.288,-0.2914,-0.2943,-0.2964,-0.296,-0.2971,-0.2952,-0.2916,-0.2919,-0.2916,-0.2914,-0.2881,-0.284,-0.283,-0.2944,-0.2944,-0.2944,0,0,-0.2354,-0.2486,-0.2537,-0.2565,-0.2651,-0.2789,-0.2797,-0.2869,-0.2922,-0.2923,-0.2973,-0.2977,-0.2968,-0.2972,-0.2976,-0.2946,-0.296,-0.2959,-0.2934,-0.2931,-0.2928,-0.2889,-0.2973,0,0,0,0,0,-0.2482,-0.247,-0.2515,-0.2538,-0.2685,-0.2769,-0.2791,-0.2883,-0.2921,-0.292,-0.298,-0.2962,-0.2996,-0.3001,-0.2997,-0.2952,-0.2945,-0.2945,-0.2945,-0.2909,-0.2905,-0.2902,0,0,0,0,0,0,-0.2492,-0.2518,-0.2516,-0.2651,-0.2687,-0.277,-0.2845,-0.287,-0.2922,-0.293,-0.2962,-0.2963,-0.2988,-0.3001,-0.2997,-0.2955,-0.2974,-0.2945,-0.2945,-0.2945,-0.2907,-0.2905,-0.2902,0,0,0,0,0,-0.25,-0.2522,-0.2726,-0.2653,-0.2684,-0.2812,-0.2844,-0.2866,-0.2902,-0.295,-0.2956,-0.2967,-0.2988,-0.2985,-0.2999,-0.2956,-0.2976,-0.2975,-0.2945,-0.2945,-0.2945,-0.2906,0,0,0,0,0,0,-0.2507,-0.2543,-0.2735,-0.2749,-0.2651,-0.2808,-0.2833,-0.2862,-0.2917,-0.2929,-0.2954,-0.2959,-0.2987,-0.2985,-0.2983,-0.2956,-0.2978,-0.2977,-0.2976,-0.2945,-0.2945,-0.2945,0,0,0,0,0,0,-0.2533,-0.2553,-0.2742,-0.2734,-0.2748,-0.2805,-0.2826,-0.2812,-0.2911,-0.2915,-0.2924,-0.2954,-0.2945,-0.2985,-0.2984,-0.2963,-0.2979,-0.2978,-0.2977,-0.2977,-0.2945,-0.2945,0,0,0,0,0,0,-0.2544,-0.2562,-0.273,-0.2741,-0.2753,-0.2917,-0.2788,-0.2903,-0.3002,-0.2906,-0.3003,-0.3004,-0.2941,-0.2943,-0.2984,-0.2964,-0.2963,-0.2979,-0.2978,-0.2978,-0.2977,0,0,0,0,0,0,0,-0.2553,-0.2403,-0.2654,-0.2747,-0.2758,-0.2881,-0.2885,-0.2888,-0.3002,-0.3003,-0.3003,-0.3004,-0.2985,-0.2984,-0.2983,-0.2965,0,0,-0.2979,-0.2979,0,0,0,0,0,0,0,0,-0.2398,-0.2402,-0.2655,-0.2658,-0.2661,-0.2882,-0.2885,-0.2888,-0.3002,-0.3003,-0.3003,-0.3003,-0.2985,-0.2984,-0.2983,0,0,0,0,0,0,0,0,0,0,0,0,0,0,0,-0.2655,-0.2658,0,-0.2882,-0.2885,-0.2887,-0.3002,-0.3003,-0.3003,-0.3003,-0.2985,-0.2984,-0.2983,0,0,0,0,0,0,0,0,0,0,0,0,0,0,0,0,0,0,0,0,0,0,0,0,0,0,0,0,0,0,0,0,0,0,0,0,0,0,0,0,0,0,0,0,0,0,0,0,0,0,0,0,0,0,0,0,0,0,0,0,0,0,0,0,0,0,0,0,0]}],[{"header":{"parameterUnit":"kt","parameterCategory":2,"dx":1,"dy":1,"la1":30.253999710083008,"la2":30.299108505249023,"lo1":-89.0895004272461,"lo2":-89.04439544677734,"nx":28,"ny":28,"refTime":"2022-09-20T09:00:00:Z","depth":"0","parameterNumber":3,"parameterNumberName":"V-component_of_CURRENTS"},"data":[0.026,0.0345,0.0382,0.0621,0.0718,0.0917,0.1034,0.123,0.1423,0.1848,0.2135,0.2316,0.1979,0.0204,-0.1003,-0.1325,-0.1668,-0.1824,-0.201,-0.1519,-0.148,-0.1443,-0.1485,-0.1818,-0.1819,-0.2532,-0.2539,-0.2544,0.0196,0.0227,0.0304,0.0418,0.054,0.0541,0.0697,0.0846,0.1102,0.1309,0.1496,0.1569,0.0923,0.029,-0.0554,-0.1012,-0.1258,-0.1219,-0.1335,-0.1402,-0.082,-0.0841,-0.1041,-0.1041,-0.1041,-0.104,-0.104,-0.104,0.0091,0.012,0.0155,0.0246,0.031,0.0427,0.0547,0.0651,0.0813,0.1033,0.1005,0.1159,0.0723,0.0183,-0.0186,-0.0757,-0.0761,-0.0756,-0.0856,-0.0969,-0.1115,-0.0535,-0.0644,-0.0644,-0.0645,-0.0645,-0.0645,0,0.0022,0.0009,0.0042,0.0119,0.0179,0.0256,0.034,0.0408,0.0469,0.0571,0.0707,0.073,0.0421,0.0218,-0.0157,-0.0271,-0.0549,-0.0399,-0.0569,-0.064,-0.0821,-0.0942,-0.0272,-0.0328,-0.0326,-0.0325,-0.0324,-0.0323,-0.0052,-0.0044,-0.001,0.0033,0.0061,0.0122,0.0179,0.0208,0.0272,0.0348,0.0402,0.0336,0.0363,0.0152,-0.0092,-0.0273,-0.0377,-0.0351,-0.0323,-0.0522,-0.0643,-0.0773,-0.0865,-0.0306,-0.0308,-0.031,-0.0311,0,-0.0085,-0.0092,-0.0049,-0.0011,0.0009,0.005,0.0133,0.0179,0.0189,0.0272,0.0278,0.0258,0.0198,0.0094,0.0035,-0.0049,-0.0258,-0.0168,-0.0162,-0.0183,-0.048,-0.0577,-0.0869,-0.0996,-0.0322,-0.0325,-0.0328,0,-0.0119,-0.0088,-0.0074,-0.0052,0.0,0.0019,0.0077,0.0093,0.0126,0.0195,0.0142,0.0196,0.0124,0.0093,0.0051,-0.0042,0.0019,-0.0094,-0.0115,-0.0085,-0.0094,-0.0256,-0.0355,0.0033,0.0033,0.0034,0.0034,0,-0.0136,-0.0102,-0.0082,-0.0066,-0.002,0.0002,0.0029,0.0055,0.0092,0.009,0.0117,0.0104,0.0114,0.0093,0.0052,0.0067,0.0026,0.0043,-0.0083,-0.0092,-0.0093,-0.0105,-0.0268,0.0035,0.0035,0.0035,0.0036,0,-0.0144,-0.0127,-0.0105,-0.005,-0.0037,-0.0016,0.0029,0.0045,0.0062,0.0071,0.0079,0.0077,0.0083,0.0082,0.0069,0.0077,0.0054,0.0044,0.0042,-0.0077,-0.0103,-0.0156,-0.0146,-0.0314,-0.0009,-0.0009,-0.0009,0,-0.0153,-0.0132,-0.0118,-0.0081,-0.0059,-0.0041,-0.0019,0.0001,0.0014,0.0028,0.0037,0.005,0.0043,0.005,0.0061,0.0046,0.0045,0.0057,0.0013,0.0011,-0.011,-0.0095,-0.0075,-0.0139,-0.0008,-0.0008,-0.0008,0,-0.0154,-0.0129,-0.0124,-0.0103,-0.0081,-0.0061,-0.0046,-0.0025,-0.0008,-0.0002,0.0013,0.0029,0.0024,0.0027,0.0026,0.0039,0.0043,0.0025,0.0025,-0.0023,0.0032,-0.0081,-0.0093,0.0057,0.0058,0.0058,-0.0007,0,-0.0145,-0.0131,-0.0124,-0.0104,-0.009,-0.0077,-0.0058,-0.0051,-0.0045,-0.0043,-0.0024,-0.0027,-0.0023,-0.0012,-0.002,0.0005,-0.0018,-0.0012,-0.0042,0.0002,-0.0033,-0.0034,-0.0036,-0.0037,-0.0037,-0.0038,0,0,-0.0147,-0.0134,-0.0122,-0.0111,-0.0099,-0.0095,-0.0082,-0.0078,-0.008,-0.0076,-0.0083,-0.0074,-0.0084,-0.0065,-0.0049,-0.0047,-0.006,-0.0062,-0.0011,-0.0008,-0.0005,-0.0036,-0.0036,-0.0039,-0.0039,-0.0039,-0.0039,0,-0.0141,-0.013,-0.0123,-0.0112,-0.0103,-0.0102,-0.0094,-0.0096,-0.0098,-0.0088,-0.0108,-0.0102,-0.0103,-0.0107,-0.0105,-0.0058,-0.0096,-0.005,-0.0024,-0.0016,-0.0012,-0.0009,-0.0039,-0.0038,-0.0041,-0.0041,-0.0041,0,-0.0137,-0.013,-0.0125,-0.0113,-0.0115,-0.0106,-0.0121,-0.0118,-0.0111,-0.0143,-0.0146,-0.0154,-0.0158,-0.0147,-0.0142,-0.0152,-0.0127,-0.0127,-0.0123,-0.0132,-0.0127,-0.0121,-0.0117,-0.0183,-0.0183,-0.0184,0,0,-0.0134,-0.0123,-0.0115,-0.0112,-0.0106,-0.0115,-0.0117,-0.0126,-0.0134,-0.0142,-0.0161,-0.0168,-0.0168,-0.0169,-0.0177,-0.016,-0.0179,-0.0146,-0.0139,-0.0133,-0.0139,-0.0132,-0.0126,-0.0186,-0.0186,-0.0186,0,0,-0.0138,-0.0125,-0.0127,-0.012,-0.0117,-0.0128,-0.0132,-0.0139,-0.0151,-0.0158,-0.0186,-0.0192,-0.0187,-0.0193,-0.0217,-0.0185,-0.021,-0.0206,-0.019,-0.0182,-0.0175,-0.0184,-0.0259,0,0,0,0,0,-0.0126,-0.012,-0.0121,-0.012,-0.0126,-0.0121,-0.0124,-0.0147,-0.0159,-0.0159,-0.0174,-0.0203,-0.0206,-0.0229,-0.0233,-0.0218,-0.0213,-0.0208,-0.0204,-0.018,-0.0171,-0.0163,0,0,0,0,0,0,-0.0125,-0.0123,-0.0122,-0.013,-0.0131,-0.0122,-0.015,-0.0157,-0.016,-0.0165,-0.0197,-0.0204,-0.0229,-0.0229,-0.0232,-0.0217,-0.0259,-0.0211,-0.0207,-0.0203,-0.0177,-0.0169,-0.0163,0,0,0,0,0,-0.0125,-0.0123,-0.0125,-0.0131,-0.0132,-0.0156,-0.0151,-0.0157,-0.0165,-0.0194,-0.0201,-0.0181,-0.0228,-0.0232,-0.0231,-0.0215,-0.0257,-0.0258,-0.0208,-0.0205,-0.0202,-0.0173,0,0,0,0,0,0,-0.0125,-0.0137,-0.0126,-0.0128,-0.0138,-0.0158,-0.0161,-0.0157,-0.0195,-0.0201,-0.0179,-0.0182,-0.0227,-0.0231,-0.0234,-0.0212,-0.0255,-0.0256,-0.0257,-0.0206,-0.0203,-0.0201,0,0,0,0,0,0,-0.0138,-0.0138,-0.0127,-0.0134,-0.0137,-0.0159,-0.0162,-0.0169,-0.0195,-0.0179,-0.0182,-0.018,-0.0221,-0.0229,-0.0232,-0.0243,-0.0254,-0.0255,-0.0256,-0.0256,-0.0204,-0.0202,0,0,0,0,0,0,-0.0139,-0.0139,-0.0135,-0.0137,-0.0139,-0.0162,-0.0167,-0.0174,-0.0194,-0.0178,-0.0197,-0.0198,-0.0219,-0.0222,-0.023,-0.024,-0.0242,-0.0254,-0.0255,-0.0255,-0.0255,0,0,0,0,0,0,0,-0.014,-0.0128,-0.0112,-0.0139,-0.0141,-0.0141,-0.0142,-0.0143,-0.0194,-0.0195,-0.0196,-0.0197,-0.0248,-0.0249,-0.025,-0.0237,0,0,-0.0254,-0.0254,0,0,0,0,0,0,0,0,-0.0129,-0.0129,-0.0112,-0.0112,-0.0112,-0.0141,-0.0142,-0.0143,-0.0195,-0.0195,-0.0196,-0.0197,-0.0248,-0.0249,-0.025,0,0,0,0,0,0,0,0,0,0,0,0,0,0,0,-0.0112,-0.0112,0,-0.0141,-0.0142,-0.0143,-0.0195,-0.0195,-0.0196,-0.0197,-0.0249,-0.0249,-0.025,0,0,0,0,0,0,0,0,0,0,0,0,0,0,0,0,0,0,0,0,0,0,0,0,0,0,0,0,0,0,0,0,0,0,0,0,0,0,0,0,0,0,0,0,0,0,0,0,0,0,0,0,0,0,0,0,0,0,0,0,0,0,0,0,0,0,0,0,0]}]],[[{"header":{"parameterUnit":"kt","parameterCategory":2,"dx":1,"dy":1,"la1":30.253999710083008,"la2":30.299108505249023,"lo1":-89.0895004272461,"lo2":-89.04439544677734,"nx":28,"ny":28,"refTime":"2022-09-20T09:00:00:Z","depth":"2","parameterNumber":2,"parameterNumberName":"U-component_of_CURRENTS"},"data":[-0.0697,-0.0632,-0.0572,-0.0524,-0.0434,-0.0426,-0.0473,-0.0506,-0.0414,-0.0309,-0.0088,0.0086,0.0299,0.0506,0.0602,0.0733,0.0799,0.0719,0.0807,0.087,0.0884,0.098,0.0763,0,0,0,0,0,-0.0679,-0.0579,-0.0485,-0.0394,-0.037,-0.0257,-0.0318,-0.0354,-0.0483,-0.0301,-0.0295,-0.0053,0.0101,0.0408,0.0739,0.0831,0.086,0.0832,0.0881,0.0896,0.0911,0.0762,0.0755,0.0755,0.0755,0.0755,0,0,-0.0633,-0.0578,-0.0459,-0.035,-0.0263,-0.0273,-0.0278,-0.0284,-0.0313,-0.0244,-0.0255,-0.0127,0.0111,0.0531,0.0659,0.09,0.092,0.0985,0.0994,0.1004,0.0859,0.0782,0.0877,0.0877,0.0878,0.0878,0.0879,0,-0.0609,-0.0548,-0.0455,-0.0332,-0.0254,-0.0178,-0.0112,-0.0123,-0.0009,0.0025,-0.0017,-0.0004,0.0271,0.0435,0.0763,0.0847,0.1104,0.1096,0.1227,0.099,0.0923,0.0925,0.0913,0.1064,0.1066,0.1067,0.1068,0.1069,-0.06,-0.054,-0.0369,-0.0311,-0.024,-0.0131,-0.0065,0.0072,0.0107,0.0251,0.0248,0.0427,0.0413,0.0682,0.0876,0.1094,0.1095,0.1141,0.1025,0.1052,0.1057,0.1037,0.1018,0.1088,0.1086,0.1084,0.1082,0,-0.0602,-0.0505,-0.0383,-0.0228,-0.0183,-0.011,0.0033,0.0107,0.0232,0.0322,0.037,0.0506,0.0624,0.0809,0.1008,0.104,0.116,0.1165,0.1077,0.108,0.1044,0.1022,0.1226,0.1223,0.1221,0.1219,0.1218,0,-0.0574,-0.0488,-0.0351,-0.0291,-0.018,-0.0077,0.0044,0.0137,0.0265,0.0329,0.0467,0.0493,0.0679,0.0799,0.0873,0.0955,0.1061,0.0954,0.0979,0.0917,0.0899,0.0972,0.0952,0.1118,0.1116,0.1114,0.1112,0,-0.0605,-0.0445,-0.0342,-0.029,-0.0134,-0.007,0.0004,0.0136,0.0208,0.0364,0.0425,0.0558,0.0614,0.0729,0.0785,0.0751,0.0977,0.0957,0.0922,0.0916,0.0917,0.0901,0.1109,0.1109,0.1108,0.1107,0.1106,0,-0.0581,-0.0494,-0.0368,-0.0222,-0.0185,-0.0118,0.0025,0.0104,0.0232,0.0284,0.0365,0.0413,0.0514,0.0445,0.063,0.0551,0.0629,0.068,0.0693,0.0573,0.0545,0.0708,0.0816,0.0831,0.0828,0.0825,0.0822,0,-0.0635,-0.0503,-0.0433,-0.0309,-0.0237,-0.0168,-0.0087,-0.0001,0.0067,0.0165,0.0204,0.0299,0.0246,0.0294,0.0342,0.0432,0.0519,0.0383,0.0632,0.0641,0.05,0.0594,0.0536,0.0771,0.0782,0.0786,0.0789,0,-0.0682,-0.0532,-0.0514,-0.0446,-0.0338,-0.0288,-0.0199,-0.01,-0.0033,0.0018,0.0117,0.0186,0.0196,0.0243,0.0267,0.0324,0.0457,0.0329,0.0334,0.0435,0.0697,0.0558,0.0573,0.0463,0.0467,0.047,0.0757,0,-0.0651,-0.0581,-0.0548,-0.044,-0.0389,-0.0328,-0.0261,-0.0211,-0.0179,-0.013,-0.0027,0.0022,0.0117,0.0133,0.0146,0.0258,0.0291,0.0271,0.0261,0.0321,0.0441,0.0466,0.0167,0.0167,0.0167,0.0167,0,0,-0.0715,-0.0629,-0.0586,-0.0519,-0.0467,-0.0434,-0.0368,-0.0326,-0.0239,-0.0194,-0.0212,-0.0052,-0.0013,0.0104,0.0118,0.0145,0.0217,0.0152,0.0282,0.0295,0.0306,0.0423,0.0447,0.0166,0.0166,0.0166,0.0166,0,-0.0694,-0.0657,-0.0605,-0.0554,-0.0476,-0.0436,-0.0426,-0.0353,-0.0322,-0.024,-0.0207,-0.0149,-0.0038,0.0019,0.0061,0.0134,0.0191,0.0159,0.0185,0.0277,0.0289,0.0301,0.0418,0.0439,0.0165,0.0165,0.0166,0,-0.0709,-0.0653,-0.0628,-0.0549,-0.0501,-0.0441,-0.0445,-0.0396,-0.0345,-0.0318,-0.0233,-0.0191,-0.0118,-0.0029,0.0011,0.0003,0.0173,0.01,0.0102,0.0108,0.0202,0.0217,0.0229,0.0065,0.0064,0.0064,0,0,-0.0696,-0.0647,-0.0579,-0.0542,-0.0515,-0.0459,-0.0432,-0.0406,-0.0351,-0.033,-0.0276,-0.0211,-0.0142,-0.0101,-0.0036,0.0046,0.0099,0.0086,0.0091,0.0094,0.0101,0.0196,0.021,0.0062,0.0062,0.0062,0,0,-0.0694,-0.0609,-0.0586,-0.0545,-0.0491,-0.0426,-0.0403,-0.0388,-0.0334,-0.0328,-0.0279,-0.0261,-0.018,-0.0145,-0.0177,-0.0036,-0.0054,-0.0045,-0.0059,-0.0053,-0.0048,-0.0058,-0.0163,0,0,0,0,0,-0.0634,-0.0616,-0.0595,-0.058,-0.049,-0.0429,-0.0417,-0.0386,-0.0392,-0.0376,-0.0323,-0.0309,-0.0148,-0.0175,-0.0155,-0.0113,0.0037,0.0042,0.0046,0.0047,0.0053,0.0059,0,0,0,0,0,0,-0.0628,-0.0609,-0.0595,-0.053,-0.0509,-0.043,-0.0429,-0.0419,-0.0393,-0.0392,-0.0318,-0.0306,-0.0266,-0.0182,-0.0165,-0.0125,-0.0168,0.0039,0.0043,0.0046,0.0049,0.0054,0.0059,0,0,0,0,0,-0.0622,-0.0608,-0.0475,-0.053,-0.0512,-0.0461,-0.043,-0.0422,-0.0403,-0.0331,-0.032,-0.0384,-0.0267,-0.0249,-0.0172,-0.0134,-0.018,-0.0174,0.0041,0.0044,0.0047,0.0052,0,0,0,0,0,0,-0.0619,-0.0598,-0.047,-0.0463,-0.0545,-0.0465,-0.0453,-0.0425,-0.0343,-0.0332,-0.0393,-0.0394,-0.0266,-0.0253,-0.0239,-0.0139,-0.019,-0.0183,-0.0179,0.0044,0.0046,0.0048,0,0,0,0,0,0,-0.0605,-0.0592,-0.0467,-0.0488,-0.0483,-0.0469,-0.0458,-0.0387,-0.0341,-0.0409,-0.0407,-0.0394,-0.0281,-0.0255,-0.0244,-0.0136,-0.0197,-0.0191,-0.0187,-0.0184,0.0045,0.0047,0,0,0,0,0,0,-0.0599,-0.0588,-0.0489,-0.0486,-0.0481,-0.0401,-0.0405,-0.0312,-0.0371,-0.0413,-0.0375,-0.0376,-0.0283,-0.0272,-0.0248,-0.0144,-0.0138,-0.0197,-0.0193,-0.019,-0.0188,0,0,0,0,0,0,0,-0.0594,-0.068,-0.0512,-0.0484,-0.048,-0.0399,-0.0397,-0.0396,-0.0372,-0.0373,-0.0374,-0.0375,-0.0233,-0.0226,-0.0219,-0.0151,0,0,-0.0198,-0.0195,0,0,0,0,0,0,0,0,-0.0684,-0.0681,-0.0512,-0.051,-0.0509,-0.0399,-0.0397,-0.0396,-0.0372,-0.0373,-0.0374,-0.0375,-0.0231,-0.0225,-0.022,0,0,0,0,0,0,0,0,0,0,0,0,0,0,0,-0.0512,-0.051,0,-0.0399,-0.0398,-0.0396,-0.0372,-0.0373,-0.0374,-0.0375,-0.0229,-0.0225,-0.022,0,0,0,0,0,0,0,0,0,0,0,0,0,0,0,0,0,0,0,0,0,0,0,0,0,0,0,0,0,0,0,0,0,0,0,0,0,0,0,0,0,0,0,0,0,0,0,0,0,0,0,0,0,0,0,0,0,0,0,0,0,0,0,0,0,0,0,0,0]}],[{"header":{"parameterUnit":"kt","parameterCategory":2,"dx":1,"dy":1,"la1":30.253999710083008,"la2":30.299108505249023,"lo1":-89.0895004272461,"lo2":-89.04439544677734,"nx":28,"ny":28,"refTime":"2022-09-20T09:00:00:Z","depth":"2","parameterNumber":3,"parameterNumberName":"V-component_of_CURRENTS"},"data":[-0.0624,-0.0646,-0.062,-0.0605,-0.0544,-0.05,-0.0461,-0.0455,-0.0426,-0.0431,-0.0413,-0.0586,-0.0551,-0.0669,-0.0777,-0.0788,-0.0675,-0.0811,-0.0703,-0.0555,-0.0527,-0.05,-0.0564,0,0,0,0,0,-0.0572,-0.0545,-0.0516,-0.047,-0.0441,-0.0357,-0.027,-0.0272,-0.0255,-0.0201,-0.0245,-0.037,-0.0553,-0.048,-0.062,-0.077,-0.0723,-0.074,-0.0638,-0.0612,-0.0586,-0.0641,-0.0859,-0.0858,-0.0858,-0.0857,0,0,-0.0463,-0.0463,-0.0434,-0.0397,-0.0338,-0.028,-0.0247,-0.0165,-0.0107,-0.0033,0.0003,-0.0029,-0.0068,-0.0343,-0.0419,-0.0442,-0.0444,-0.0499,-0.0483,-0.0464,-0.052,-0.0589,-0.0703,-0.0702,-0.0701,-0.07,-0.0699,0,-0.0389,-0.0369,-0.0348,-0.0309,-0.0272,-0.0205,-0.0133,-0.0087,0.0055,0.0121,0.0208,0.0196,0.018,0.0021,-0.0123,-0.0231,-0.014,-0.0234,0.0024,-0.0234,-0.0296,-0.0282,-0.0268,-0.0343,-0.034,-0.0338,-0.0336,-0.0335,-0.0314,-0.0313,-0.0249,-0.023,-0.0216,-0.0162,-0.0116,-0.0003,0.0061,0.0241,0.0282,0.0382,0.0352,0.0299,0.0178,0.0027,0.0132,-0.0143,-0.022,-0.006,-0.0048,-0.0043,-0.004,-0.0299,-0.0304,-0.0307,-0.031,0,-0.0276,-0.025,-0.0224,-0.016,-0.0137,-0.0111,-0.0014,0.0045,0.0136,0.0222,0.0245,0.0372,0.0394,0.0381,0.0388,0.0257,0.0191,0.0136,0.0026,0.0016,-0.0015,-0.0017,-0.0057,-0.0062,-0.0066,-0.007,-0.0073,0,-0.0231,-0.021,-0.0174,-0.017,-0.0114,-0.0067,0.0004,0.0059,0.0145,0.0208,0.0249,0.0305,0.0319,0.0344,0.0279,0.0191,0.0292,0.0087,0.0094,0.003,0.0012,0.0252,0.0251,0.0257,0.0257,0.0257,0.0257,0,-0.0228,-0.0183,-0.0163,-0.0151,-0.009,-0.0058,-0.0016,0.0056,0.0111,0.018,0.0229,0.0246,0.0292,0.0258,0.0244,0.0226,0.0267,0.0269,0.0117,0.0107,0.0052,0.0034,0.0257,0.0257,0.0257,0.0257,0.0257,0,-0.0218,-0.0205,-0.0182,-0.0116,-0.0103,-0.0082,0.0005,0.0046,0.011,0.0137,0.0154,0.0175,0.0202,0.016,0.0185,0.0176,0.0162,0.0175,0.0177,0.0062,0.0077,-0.0008,-0.0057,0.0194,0.0194,0.0193,0.0193,0,-0.0219,-0.0206,-0.0197,-0.0159,-0.0147,-0.0119,-0.0073,-0.0035,-0.0003,0.0052,0.0063,0.0119,0.0068,0.0103,0.0106,0.0165,0.0157,0.0143,0.0209,0.021,0.0082,0.0052,-0.0034,-0.0053,0.0189,0.0189,0.0189,0,-0.0233,-0.0228,-0.0226,-0.0205,-0.0189,-0.0171,-0.0137,-0.009,-0.0042,-0.0048,0.0016,0.005,0.0049,0.009,0.0124,0.0145,0.0149,0.0149,0.0152,0.0138,0.0201,0.0063,0.0052,0.0184,0.0185,0.0185,0.0186,0,-0.0237,-0.0231,-0.0233,-0.0217,-0.0201,-0.0191,-0.0165,-0.0147,-0.013,-0.0102,-0.0053,-0.0013,0.0054,0.007,0.0096,0.0142,0.0135,0.0167,0.0186,0.0187,0.0185,0.0188,0.0166,0.0167,0.0168,0.0168,0,0,-0.024,-0.0237,-0.0241,-0.0235,-0.0214,-0.0206,-0.0185,-0.0167,-0.0124,-0.0095,-0.0105,-0.0007,0.0037,0.012,0.012,0.0144,0.0151,0.015,0.0185,0.0187,0.0188,0.0187,0.0189,0.0169,0.0169,0.0169,0.0169,0,-0.0243,-0.0248,-0.0246,-0.0236,-0.0219,-0.0197,-0.0199,-0.017,-0.0145,-0.0113,-0.0063,-0.0027,0.0038,0.0097,0.0137,0.0146,0.0172,0.0159,0.0148,0.0188,0.0189,0.019,0.0189,0.019,0.0171,0.0171,0.0171,0,-0.024,-0.0233,-0.0231,-0.0219,-0.0199,-0.0182,-0.0163,-0.0151,-0.0123,-0.0077,-0.0033,-0.0001,0.0067,0.0112,0.0133,0.0146,0.0192,0.0187,0.0185,0.0177,0.0219,0.022,0.0221,0.021,0.021,0.021,0,0,-0.0238,-0.0241,-0.0217,-0.0215,-0.0211,-0.0174,-0.016,-0.0137,-0.0101,-0.0083,-0.0039,0.0013,0.0062,0.0094,0.0132,0.0169,0.0185,0.0189,0.0187,0.0186,0.0177,0.0218,0.0219,0.021,0.021,0.021,0,0,-0.0228,-0.0211,-0.0198,-0.0199,-0.0178,-0.0136,-0.0129,-0.0107,-0.0068,-0.0061,-0.0001,0.0014,0.0052,0.0087,0.0077,0.015,0.016,0.0163,0.0128,0.0127,0.0125,0.0104,0.0122,0,0,0,0,0,-0.0209,-0.0218,-0.0207,-0.0203,-0.0167,-0.0148,-0.014,-0.0098,-0.0082,-0.0079,-0.0031,0.0,0.0101,0.0093,0.0104,0.0121,0.0206,0.0206,0.0207,0.017,0.0168,0.0166,0,0,0,0,0,0,-0.0207,-0.0204,-0.0206,-0.017,-0.0161,-0.0147,-0.011,-0.0099,-0.0081,-0.0075,-0.001,0.0002,0.0046,0.009,0.01,0.0114,0.0119,0.0206,0.0207,0.0207,0.0169,0.0168,0.0166,0,0,0,0,0,-0.0206,-0.0203,-0.0161,-0.0168,-0.016,-0.0109,-0.0109,-0.0099,-0.0083,-0.0019,-0.0006,-0.0053,0.0045,0.0057,0.0096,0.0109,0.0113,0.0116,0.0206,0.0207,0.0207,0.0169,0,0,0,0,0,0,-0.0205,-0.0187,-0.0158,-0.0153,-0.0162,-0.0108,-0.01,-0.01,-0.0027,-0.0015,-0.0059,-0.0055,0.0043,0.0053,0.0062,0.0105,0.0108,0.0111,0.0113,0.0207,0.0207,0.0207,0,0,0,0,0,0,-0.0188,-0.0184,-0.0155,-0.0149,-0.0143,-0.0107,-0.01,-0.0068,-0.0026,-0.007,-0.0065,-0.0058,0.0036,0.005,0.0058,0.0106,0.0104,0.0107,0.0109,0.0111,0.0207,0.0207,0,0,0,0,0,0,-0.0185,-0.0181,-0.015,-0.0146,-0.014,-0.0081,-0.0076,-0.0037,-0.0036,-0.0073,-0.0033,-0.0032,0.0032,0.004,0.0054,0.0099,0.0104,0.0104,0.0106,0.0108,0.0109,0,0,0,0,0,0,0,-0.0183,-0.0225,-0.0188,-0.0143,-0.0138,-0.0108,-0.0106,-0.0105,-0.0036,-0.0034,-0.0033,-0.0032,0.0084,0.0088,0.0092,0.0094,0,0,0.0103,0.0105,0,0,0,0,0,0,0,0,-0.0225,-0.0225,-0.0188,-0.0187,-0.0186,-0.0108,-0.0106,-0.0105,-0.0035,-0.0034,-0.0034,-0.0033,0.0085,0.0088,0.0091,0,0,0,0,0,0,0,0,0,0,0,0,0,0,0,-0.0188,-0.0187,0,-0.0108,-0.0107,-0.0106,-0.0035,-0.0034,-0.0034,-0.0033,0.0086,0.0089,0.0091,0,0,0,0,0,0,0,0,0,0,0,0,0,0,0,0,0,0,0,0,0,0,0,0,0,0,0,0,0,0,0,0,0,0,0,0,0,0,0,0,0,0,0,0,0,0,0,0,0,0,0,0,0,0,0,0,0,0,0,0,0,0,0,0,0,0,0,0,0]}]],[[{"header":{"parameterUnit":"kt","parameterCategory":2,"dx":1,"dy":1,"la1":30.253999710083008,"la2":30.299108505249023,"lo1":-89.0895004272461,"lo2":-89.04439544677734,"nx":28,"ny":28,"refTime":"2022-09-20T09:00:00:Z","depth":"4","parameterNumber":2,"parameterNumberName":"U-component_of_CURRENTS"},"data":[-0.0266,-0.0273,-0.0268,-0.0234,-0.0207,-0.0193,-0.0194,-0.0198,-0.018,-0.0177,-0.012,-0.008,0.0032,-0.0047,0.0158,0.0185,0.0121,0.0339,0.0342,0.0189,0.0173,0.0159,0.0184,0,0,0,0,0,-0.0262,-0.0266,-0.0265,-0.025,-0.0241,-0.0227,-0.0241,-0.0247,-0.0245,-0.0214,-0.0203,-0.0131,0.0005,0.0049,0.0147,0.0162,0.0169,0.0284,0.0152,0.0179,0.0162,0.0192,0,0,0,0,0,0,-0.026,-0.0263,-0.0266,-0.026,-0.0256,-0.0243,-0.0247,-0.0234,-0.0232,-0.0216,-0.0199,-0.013,-0.0097,0.0037,0.0083,0.016,0.0153,0.0145,0.013,0.0114,0.0136,0.0185,0.0297,0,0,0,0,0,-0.0252,-0.0259,-0.0257,-0.0253,-0.0254,-0.0248,-0.0247,-0.0247,-0.0246,-0.025,-0.021,-0.014,-0.0062,-0.0,0.0076,0.0086,0.0034,0.0083,0.0072,0.0019,0.005,0.0038,0.0026,0.0095,0.0093,0.0091,0.0091,0,-0.0255,-0.0253,-0.0247,-0.0245,-0.024,-0.0237,-0.0241,-0.0241,-0.0245,-0.023,-0.0228,-0.0174,-0.015,-0.0051,-0.0033,0.0019,0.0011,0.0038,-0.0018,0.0021,0.0015,0.0007,0.0001,0.0077,0.0078,0.0079,0.008,0,-0.026,-0.0252,-0.0244,-0.0233,-0.0229,-0.0229,-0.023,-0.0235,-0.0234,-0.0233,-0.0229,-0.021,-0.0169,-0.0152,-0.0163,-0.0128,-0.0106,-0.0078,-0.0204,-0.0213,-0.0024,-0.0025,0.0053,0.0058,0.0063,0.0066,0.007,0,-0.0258,-0.0252,-0.0237,-0.0234,-0.0228,-0.0225,-0.0228,-0.0225,-0.0227,-0.0226,-0.0218,-0.0215,-0.0224,-0.0211,-0.0227,-0.0167,-0.0237,-0.0152,-0.0149,-0.0307,-0.0307,-0.0305,-0.0305,-0.0305,-0.0306,-0.0306,-0.0306,0,-0.0263,-0.0248,-0.0239,-0.0236,-0.0228,-0.0227,-0.0226,-0.0226,-0.0229,-0.0219,-0.0219,-0.0218,-0.0222,-0.024,-0.0243,-0.0265,-0.0252,-0.0294,-0.0182,-0.0173,-0.0306,-0.0306,-0.0306,-0.0306,-0.0307,-0.0307,-0.0307,0,-0.0262,-0.0252,-0.0243,-0.0232,-0.0229,-0.023,-0.0228,-0.0229,-0.0223,-0.0223,-0.0221,-0.0224,-0.023,-0.0249,-0.0266,-0.0269,-0.0284,-0.0299,-0.0299,-0.0168,-0.0176,-0.0275,-0.0294,-0.0294,-0.0294,-0.0294,-0.0294,0,-0.0264,-0.0251,-0.0249,-0.0242,-0.0232,-0.023,-0.0234,-0.0228,-0.0227,-0.0222,-0.023,-0.0239,-0.0249,-0.026,-0.0273,-0.0295,-0.0299,-0.0305,-0.0313,-0.0312,-0.0177,-0.0161,-0.033,-0.0296,-0.0296,-0.0296,-0.0295,0,-0.0267,-0.0252,-0.0253,-0.0244,-0.0238,-0.0231,-0.0235,-0.0224,-0.0221,-0.0224,-0.0218,-0.0251,-0.025,-0.0262,-0.028,-0.0294,-0.03,-0.0304,-0.0305,-0.0271,-0.0314,-0.018,-0.0166,-0.0329,-0.0329,-0.033,-0.0297,0,-0.0258,-0.0254,-0.0252,-0.0242,-0.0238,-0.0231,-0.0223,-0.0222,-0.022,-0.0211,-0.0226,-0.0246,-0.0258,-0.0278,-0.0285,-0.0304,-0.0297,-0.0317,-0.0298,-0.0319,-0.0303,-0.0302,-0.0311,-0.0311,-0.0311,-0.0311,0,0,-0.026,-0.0251,-0.0244,-0.0238,-0.0231,-0.0218,-0.0212,-0.0208,-0.0201,-0.0198,-0.0202,-0.0232,-0.0248,-0.0268,-0.0278,-0.0297,-0.0295,-0.0278,-0.0317,-0.0318,-0.0318,-0.0303,-0.0302,-0.0311,-0.0311,-0.0311,-0.0311,0,-0.0254,-0.0249,-0.0246,-0.0238,-0.0222,-0.0212,-0.0211,-0.0194,-0.0189,-0.0197,-0.0202,-0.0219,-0.0243,-0.0251,-0.0261,-0.0294,-0.0283,-0.031,-0.0299,-0.0316,-0.0317,-0.0318,-0.0303,-0.0302,-0.0311,-0.0311,-0.0311,0,-0.0247,-0.0238,-0.0237,-0.0222,-0.0209,-0.0202,-0.0187,-0.0178,-0.0174,-0.0174,-0.0179,-0.0193,-0.0211,-0.0232,-0.0244,-0.0237,-0.0266,-0.0267,-0.0269,-0.025,-0.0266,-0.0268,-0.0269,-0.0247,-0.0246,-0.0246,0,0,-0.0242,-0.024,-0.022,-0.0218,-0.0211,-0.0193,-0.0186,-0.0174,-0.017,-0.0169,-0.0171,-0.0184,-0.0201,-0.0208,-0.0223,-0.0244,-0.0236,-0.0258,-0.0261,-0.0263,-0.0246,-0.0263,-0.0265,-0.0245,-0.0245,-0.0245,0,0,-0.0237,-0.0219,-0.0212,-0.0208,-0.0194,-0.0173,-0.0169,-0.016,-0.0161,-0.0162,-0.0161,-0.0163,-0.0185,-0.0192,-0.0173,-0.0216,-0.0207,-0.0211,-0.0202,-0.0206,-0.0209,-0.0181,-0.0159,0,0,0,0,0,-0.022,-0.0223,-0.0216,-0.0213,-0.0191,-0.0178,-0.0174,-0.0156,-0.0151,-0.0149,-0.0155,-0.0148,-0.0185,-0.0168,-0.0171,-0.0182,-0.0227,-0.023,-0.0233,-0.0228,-0.0232,-0.0235,0,0,0,0,0,0,-0.0219,-0.0215,-0.0216,-0.0195,-0.019,-0.0177,-0.0163,-0.0158,-0.015,-0.0148,-0.0147,-0.0148,-0.0145,-0.0166,-0.0169,-0.018,-0.0158,-0.0228,-0.0231,-0.0233,-0.0229,-0.0233,-0.0235,0,0,0,0,0,-0.0218,-0.0215,-0.0185,-0.0195,-0.019,-0.0167,-0.0163,-0.0159,-0.0152,-0.0149,-0.0148,-0.0139,-0.0145,-0.0148,-0.0167,-0.0179,-0.0156,-0.0157,-0.023,-0.0232,-0.0234,-0.0231,0,0,0,0,0,0,-0.0217,-0.0211,-0.0184,-0.0182,-0.0192,-0.0167,-0.0163,-0.0159,-0.0154,-0.0152,-0.0141,-0.0139,-0.0146,-0.0147,-0.0149,-0.0178,-0.0154,-0.0155,-0.0156,-0.0231,-0.0233,-0.0235,0,0,0,0,0,0,-0.0212,-0.0209,-0.0183,-0.018,-0.0177,-0.0167,-0.0163,-0.0176,-0.0156,-0.0147,-0.0145,-0.0141,-0.0153,-0.0147,-0.0149,-0.0168,-0.0153,-0.0154,-0.0155,-0.0155,-0.0233,-0.0234,0,0,0,0,0,0,-0.021,-0.0208,-0.018,-0.0178,-0.0176,-0.015,-0.0179,-0.0164,-0.0132,-0.0149,-0.0131,-0.013,-0.0154,-0.0154,-0.0148,-0.0167,-0.0168,-0.0153,-0.0154,-0.0154,-0.0155,0,0,0,0,0,0,0,-0.0209,-0.0232,-0.0197,-0.0177,-0.0175,-0.0161,-0.016,-0.016,-0.0132,-0.0132,-0.0131,-0.0131,-0.0148,-0.0149,-0.015,-0.0166,0,0,-0.0153,-0.0154,0,0,0,0,0,0,0,0,-0.0232,-0.0232,-0.0196,-0.0196,-0.0196,-0.0161,-0.016,-0.016,-0.0132,-0.0132,-0.0131,-0.0131,-0.0148,-0.0149,-0.015,0,0,0,0,0,0,0,0,0,0,0,0,0,0,0,-0.0196,-0.0196,0,-0.0161,-0.016,-0.016,-0.0132,-0.0132,-0.0131,-0.0131,-0.0148,-0.0149,-0.015,0,0,0,0,0,0,0,0,0,0,0,0,0,0,0,0,0,0,0,0,0,0,0,0,0,0,0,0,0,0,0,0,0,0,0,0,0,0,0,0,0,0,0,0,0,0,0,0,0,0,0,0,0,0,0,0,0,0,0,0,0,0,0,0,0,0,0,0,0]}],[{"header":{"parameterUnit":"kt","parameterCategory":2,"dx":1,"dy":1,"la1":30.253999710083008,"la2":30.299108505249023,"lo1":-89.0895004272461,"lo2":-89.04439544677734,"nx":28,"ny":28,"refTime":"2022-09-20T09:00:00:Z","depth":"4","parameterNumber":3,"parameterNumberName":"V-component_of_CURRENTS"},"data":[-0.1007,-0.1045,-0.1062,-0.111,-0.1148,-0.1212,-0.1237,-0.1247,-0.1197,-0.1196,-0.1158,-0.1173,-0.1128,-0.1153,-0.1101,-0.1105,-0.116,-0.1133,-0.1133,-0.1245,-0.1253,-0.1261,-0.1249,0,0,0,0,0,-0.1024,-0.1039,-0.1081,-0.1132,-0.1198,-0.1236,-0.1269,-0.128,-0.1288,-0.1229,-0.1229,-0.1187,-0.1152,-0.1148,-0.111,-0.1178,-0.1206,-0.1139,-0.1235,-0.125,-0.1259,-0.1245,0,0,0,0,0,0,-0.104,-0.1061,-0.1104,-0.1151,-0.1214,-0.1248,-0.1272,-0.1264,-0.1271,-0.1271,-0.1247,-0.1235,-0.1241,-0.1205,-0.1199,-0.1185,-0.1181,-0.1195,-0.1207,-0.1216,-0.1194,-0.1151,-0.1074,0,0,0,0,0,-0.104,-0.1076,-0.1111,-0.1165,-0.1215,-0.1261,-0.1304,-0.1299,-0.1333,-0.1363,-0.1311,-0.1298,-0.1268,-0.1258,-0.1247,-0.1244,-0.135,-0.1316,-0.1321,-0.1332,-0.1309,-0.1296,-0.1299,-0.1293,-0.1294,-0.1295,-0.1295,0,-0.1036,-0.1064,-0.1136,-0.1166,-0.1201,-0.1259,-0.1297,-0.1342,-0.1355,-0.138,-0.1378,-0.1378,-0.1386,-0.1322,-0.1354,-0.1339,-0.1333,-0.1339,-0.1351,-0.1323,-0.1308,-0.1309,-0.131,-0.1302,-0.1302,-0.1301,-0.1301,0,-0.1031,-0.106,-0.1113,-0.1174,-0.1199,-0.1244,-0.1305,-0.1337,-0.1375,-0.1401,-0.1416,-0.1441,-0.1427,-0.1442,-0.1447,-0.1438,-0.142,-0.1395,-0.1455,-0.1442,-0.1324,-0.1321,-0.1314,-0.1311,-0.1309,-0.1307,-0.1306,0,-0.1018,-0.1061,-0.1105,-0.1132,-0.119,-0.1231,-0.1293,-0.1333,-0.1375,-0.1398,-0.1441,-0.1446,-0.1485,-0.1488,-0.1487,-0.1447,-0.1492,-0.1412,-0.1395,-0.1467,-0.1464,-0.1446,-0.1441,-0.1496,-0.1497,-0.1497,-0.1497,0,-0.0994,-0.105,-0.1094,-0.1114,-0.1172,-0.1215,-0.1253,-0.1312,-0.134,-0.1398,-0.1413,-0.146,-0.1473,-0.1488,-0.1478,-0.148,-0.1482,-0.148,-0.1405,-0.1399,-0.1445,-0.1439,-0.1497,-0.1497,-0.1497,-0.1497,-0.1497,0,-0.0981,-0.1005,-0.106,-0.1113,-0.113,-0.1174,-0.1245,-0.1285,-0.134,-0.1364,-0.1404,-0.1419,-0.1456,-0.1444,-0.1468,-0.1463,-0.1458,-0.1449,-0.1448,-0.1362,-0.1328,-0.1353,-0.1414,-0.1414,-0.1414,-0.1413,-0.1413,0,-0.0945,-0.099,-0.1009,-0.1071,-0.1099,-0.1132,-0.1178,-0.1225,-0.1261,-0.1306,-0.1332,-0.1377,-0.1379,-0.1397,-0.1415,-0.1418,-0.1428,-0.1419,-0.1396,-0.1395,-0.1318,-0.1358,-0.1426,-0.1408,-0.1408,-0.1409,-0.1409,0,-0.0915,-0.0952,-0.0964,-0.0987,-0.1035,-0.1063,-0.1116,-0.1167,-0.1199,-0.1245,-0.1289,-0.1346,-0.1352,-0.1367,-0.1373,-0.1383,-0.1415,-0.1368,-0.1368,-0.135,-0.1432,-0.1359,-0.1355,-0.142,-0.1421,-0.1422,-0.1405,0,-0.089,-0.0919,-0.0937,-0.0974,-0.1004,-0.1037,-0.1068,-0.1105,-0.1134,-0.1158,-0.122,-0.1245,-0.1284,-0.1298,-0.1301,-0.1347,-0.1327,-0.1321,-0.1284,-0.1331,-0.1315,-0.1319,-0.1265,-0.1264,-0.1264,-0.1263,0,0,-0.0856,-0.0883,-0.0896,-0.0922,-0.0947,-0.0963,-0.0997,-0.1025,-0.1073,-0.1098,-0.1099,-0.1174,-0.1191,-0.1239,-0.1263,-0.127,-0.1264,-0.1252,-0.1309,-0.1315,-0.1319,-0.1307,-0.1312,-0.1261,-0.1261,-0.1261,-0.126,0,-0.0841,-0.0859,-0.0882,-0.0903,-0.0935,-0.095,-0.0963,-0.0997,-0.1021,-0.1073,-0.1083,-0.112,-0.1164,-0.1182,-0.1194,-0.1254,-0.1228,-0.1263,-0.1287,-0.1301,-0.1308,-0.1314,-0.1303,-0.1308,-0.1258,-0.1258,-0.1258,0,-0.0816,-0.083,-0.0844,-0.0875,-0.0895,-0.0924,-0.0919,-0.0954,-0.0985,-0.0983,-0.1041,-0.1061,-0.1078,-0.1125,-0.1145,-0.1124,-0.1186,-0.1173,-0.1178,-0.1174,-0.1187,-0.1195,-0.1202,-0.1109,-0.1109,-0.1109,0,0,-0.0806,-0.0827,-0.0846,-0.0872,-0.0883,-0.0906,-0.0925,-0.094,-0.0967,-0.0984,-0.1006,-0.103,-0.106,-0.1074,-0.1101,-0.1136,-0.1123,-0.1156,-0.1163,-0.1168,-0.1168,-0.1183,-0.119,-0.1107,-0.1107,-0.1107,0,0,-0.08,-0.082,-0.0826,-0.0853,-0.0878,-0.09,-0.0924,-0.0935,-0.0972,-0.0979,-0.0986,-0.0992,-0.1044,-0.104,-0.1019,-0.1086,-0.1056,-0.1061,-0.1089,-0.1098,-0.1105,-0.1098,-0.0996,0,0,0,0,0,-0.0795,-0.0815,-0.082,-0.0826,-0.0864,-0.0895,-0.0902,-0.0924,-0.0927,-0.0949,-0.0974,-0.0962,-0.1033,-0.1015,-0.102,-0.1047,-0.1086,-0.109,-0.1094,-0.1139,-0.1148,-0.1156,0,0,0,0,0,0,-0.0797,-0.0804,-0.0819,-0.0839,-0.0848,-0.0894,-0.0889,-0.0896,-0.0926,-0.0929,-0.0958,-0.0962,-0.0964,-0.1012,-0.1016,-0.1042,-0.0994,-0.1088,-0.1091,-0.1094,-0.1142,-0.115,-0.1156,0,0,0,0,0,-0.0799,-0.0804,-0.0859,-0.084,-0.0847,-0.0879,-0.0889,-0.0895,-0.0924,-0.0935,-0.094,-0.0941,-0.0964,-0.0969,-0.1014,-0.1041,-0.0991,-0.0993,-0.109,-0.1092,-0.1094,-0.1146,0,0,0,0,0,0,-0.0801,-0.0813,-0.0862,-0.0865,-0.0837,-0.0878,-0.0884,-0.0893,-0.093,-0.0935,-0.0916,-0.0917,-0.0964,-0.0968,-0.0972,-0.1041,-0.0989,-0.099,-0.0991,-0.1092,-0.1094,-0.1095,0,0,0,0,0,0,-0.0811,-0.0816,-0.0864,-0.0859,-0.0862,-0.0877,-0.0882,-0.0901,-0.0929,-0.0909,-0.0911,-0.0916,-0.0954,-0.0967,-0.097,-0.0998,-0.0986,-0.0988,-0.0989,-0.099,-0.1093,-0.1095,0,0,0,0,0,0,-0.0814,-0.0818,-0.0858,-0.0861,-0.0863,-0.0906,-0.0893,-0.093,-0.0931,-0.0907,-0.0931,-0.0931,-0.0952,-0.0956,-0.0969,-0.0996,-0.0998,-0.0987,-0.0988,-0.0989,-0.0989,0,0,0,0,0,0,0,-0.0816,-0.0776,-0.0839,-0.0862,-0.0865,-0.0898,-0.0899,-0.09,-0.0931,-0.0931,-0.0931,-0.0931,-0.0977,-0.0979,-0.098,-0.0994,0,0,-0.0986,-0.0987,0,0,0,0,0,0,0,0,-0.0775,-0.0776,-0.0839,-0.084,-0.084,-0.0898,-0.0899,-0.09,-0.0931,-0.0931,-0.0931,-0.0931,-0.0977,-0.0979,-0.098,0,0,0,0,0,0,0,0,0,0,0,0,0,0,0,-0.0839,-0.084,0,-0.0898,-0.0899,-0.09,-0.0931,-0.0931,-0.0931,-0.0931,-0.0978,-0.0979,-0.098,0,0,0,0,0,0,0,0,0,0,0,0,0,0,0,0,0,0,0,0,0,0,0,0,0,0,0,0,0,0,0,0,0,0,0,0,0,0,0,0,0,0,0,0,0,0,0,0,0,0,0,0,0,0,0,0,0,0,0,0,0,0,0,0,0,0,0,0,0]}]]]